Location: Bouillancy
(49.1149°N, 2.9308°E)
Time: 08:31:04
(UTC+00:00)

Cosmos 1655 Rocket - Pass Details

Date: 30 September 2020
Orbit: 971 x 1005 km, 82.9° (Epoch: 29 October)

Event Time Altitude Azimuth Distance (km) Brightness Sun altitude
Rises 19:52:31 0° 350° (N) 3,701 7.5 -23.9°
Reaches altitude 10° 19:55:02 10° 349° (N) 2,754 6.8 -24.2°
Maximum altitude 20:01:22 84° 263° (W) 1,004 4.0 -25.2°
Enters shadow 20:04:15 35° 178° (S) 1,543 4.8 -25.6°
